Regional Weather Roundup
Issued by NWS

Home | Current Version | Previous Version | Text Only | Print | Product List | Glossary Off
Versions: 1 2 3 4 5 6 7 8 9 10 11 12 13 14 15 16 17 18 19 20 21 22 23 24 25 26 27 28 29 30 31 32 33 34 35 36 37 38 39 40 41 42 43 44 45 46 47 48 49 50

000
ASUS43 KLSX 110210
RWRMO

WEATHER SUMMARY FOR MISSOURI
NATIONAL WEATHER SERVICE SPRINGFIELD MO
800 PM CST WED FEB 10 2016

NOTE: "FAIR" INDICATES FEW OR NO CLOUDS BELOW 12,000 FEET WITH NO
       SIGNIFICANT WEATHER AND/OR OBSTRUCTIONS TO VISIBILITY.
       CURRENT SKY AND/OR WEATHER CONDITIONS ARE NOT AVAILABLE FOR
       CHILLICOTHE AND FARMINGTON.

MOZ001>031-035>038-043-044-053-054-110300-
...NORTHERN AND WESTERN MISSOURI...

CITY           SKY/WX    TMP DP  RH WIND       PRES   REMARKS
KANSAS CTY INT PTCLDY    37  21  52 E12       29.99R WCI  29
KANSAS C DTWN  CLEAR     37  21  52 E17       29.99R WCI  27
LEE`S SUMMIT   CLEAR     37  20  50 E10       29.99R WCI  30
ST JOSEPH      CLEAR     32  22  66 E12       30.01R WCI  23
CHILLICOTHE      N/A     26  20  77 E9        30.08S WCI  17
KIRKSVILLE     CLOUDY    21  16  81 E7        30.10S WCI  12

$$
MOZ066>068-077>081-088>096-101>105-110300-
...SOUTHWEST MISSOURI...

CITY           SKY/WX    TMP DP  RH WIND       PRES   REMARKS
SPRINGFIELD    CLEAR     33  19  56 E3        29.97S
JOPLIN         CLEAR     42  24  49 VRB5      29.95S

$$
MOZ032>034-039>042-045>050-055>058-069>072-110300-
...CENTRAL MISSOURI...

CITY           SKY/WX    TMP DP  RH WIND       PRES   REMARKS
COLUMBIA       PTCLDY    23  18  81 E9        30.08S WCI  13
JEFFERSON CITY PTCLDY    25  18  74 E5        30.11R WCI  19
ROLLA          CLEAR     24  18  77 E13       30.05R WCI  12
SEDALIA        CLEAR     28  20  71 E10       30.06R WCI  19
WHITEMAN AFB   PTCLDY    29  21  74 E9        30.02R WCI  20
WARRENSBURG    CLEAR     30  21  69 E13G20    30.02S WCI  20
OSAGE BEACH    CLEAR     27  18  69 E9        30.05R WCI  17

$$
MOZ051-052-059>065-110300-
...EAST CENTRAL MISSOURI...

CITY           SKY/WX    TMP DP  RH WIND       PRES   REMARKS
ST LOUIS INTL  FLURRIES  24  17  74 SE3       30.16R
SPIRIT OF STL  CLOUDY    22  18  85 CALM      30.15R
ST CHARLES     CLOUDY    22  18  85 E3        30.16R

$$
MOZ072>076-082>087-097>100-106>115-110300-
...SOUTH CENTRAL AND SOUTHEAST MISSOURI...

CITY           SKY/WX    TMP DP  RH WIND       PRES   REMARKS
CAPE GIRARDEAU CLOUDY    24  20  84 E6        30.18R WCI  17
FARMINGTON     CLOUDY    24  18  77 SE5       30.13R WCI  18
POPLAR BLUFF   CLEAR     27  17  66 E6        30.15R WCI  20
WEST PLAINS    CLEAR     33  11  39 E7        30.06R WCI  27

$$



USA.gov is the U.S. government's official web portal to all federal, state and local government web resources and services.